FW6490 Weather Reports


time (UTC)temp
C
wind
direction
speed
KPH
gust
KPH
rain 1hr
cm
rain 24hr
cm
rain mn
cm
humidity
%
barometer
mb
20260506211610 20 315 9.7 20.9 0.00 0.00 0.00 65 1012.8
20260506211107 20 287 11.3 19.3 0.00 0.00 0.00 65 1012.8
20260506210608 20 338 11.3 20.9 0.00 0.00 0.00 66 1012.8
20260506210108 20 304 11.3 20.9 0.00 0.00 0.00 66 1012.8
20260506205105 20 319 11.3 22.5 0.00 0.00 0.00 67 1012.8
20260506204604 20 277 11.3 24.1 0.00 0.00 0.00 67 1012.8
20260506203605 20 316 11.3 25.7 0.00 0.00 0.00 64 1012.9
20260506203101 20 315 11.3 25.7 0.00 0.00 0.00 66 1012.9
20260506202555 21 308 11.3 25.7 0.00 0.00 0.00 64 1012.9
20260506201553 21 333 11.3 20.9 0.00 0.00 0.00 63 1012.9
20260506201049 21 317 9.7 20.9 0.00 0.00 0.00 63 1013.0
20260506200548 21 325 8.0 19.3 0.00 0.00 0.00 64 1013.0
20260506200046 21 323 8.0 19.3 0.00 0.00 0.00 64 1013.0
20260506195546 20 5 11.3 25.7 0.00 0.00 0.00 65 1012.9
20260506195046 20 321 11.3 25.7 0.00 0.00 0.00 64 1012.9
20260506194546 21 28 9.7 20.9 0.00 0.00 0.00 63 1012.9
20260506193541 21 315 11.3 20.9 0.00 0.00 0.00 63 1012.8
20260506192535 22 328 8.0 19.3 0.00 0.00 0.00 61 1013.0
20260506192034 22 319 9.7 20.9 0.00 0.00 0.00 61 1013.0
20260506191534 22 313 9.7 20.9 0.00 0.00 0.00 61 1013.0
20260506191031 21 320 8.0 16.1 0.00 0.00 0.00 63 1013.2
20260506190530 21 316 8.0 17.7 0.00 0.00 0.00 62 1013.2
20260506190025 21 323 8.0 17.7 0.00 0.00 0.00 62 1013.2
20260506185523 21 317 8.0 17.7 0.00 0.00 0.00 64 1013.3
20260506184517 21 315 9.7 17.7 0.00 0.00 0.00 62 1013.3
20260506184021 21 317 8.0 17.7 0.00 0.00 0.00 62 1013.2
20260506183520 21 289 8.0 16.1 0.00 0.00 0.00 61 1013.2
20260506183018 21 305 8.0 17.7 0.00 0.00 0.00 60 1013.2
20260506182514 21 315 8.0 19.3 0.00 0.00 0.00 61 1013.4
20260506182011 21 335 8.0 19.3 0.00 0.00 0.00 61 1013.4
20260506181511 22 297 6.4 14.5 0.00 0.00 0.00 60 1013.4
20260506181010 22 337 6.4 14.5 0.00 0.00 0.00 58 1013.4
20260506180512 22 314 6.4 12.9 0.00 0.00 0.00 59 1013.4
20260506180010 22 351 6.4 12.9 0.00 0.00 0.00 58 1013.4
20260506175512 22 311 4.8 11.3 0.00 0.00 0.00 59 1013.4
20260506174514 23 307 4.8 12.9 0.00 0.00 0.00 58 1013.4
20260506174006 23 34 3.2 8.0 0.00 0.00 0.00 57 1013.4
20260506173502 22 5 3.2 11.3 0.00 0.00 0.00 55 1013.4
20260506173001 22 40 3.2 11.3 0.00 0.00 0.00 56 1013.4
20260506172500 22 34 1.6 6.4 0.00 0.00 0.00 57 1013.4
20260506171455 22 30 3.2 8.0 0.00 0.00 0.00 59 1013.4
20260506170955 22 5 3.2 8.0 0.00 0.00 0.00 59 1013.4
20260506170456 21 0 3.2 8.0 0.00 0.00 0.00 61 1013.4
20260506165950 21 341 3.2 6.4 0.00 0.00 0.00 60 1013.4
20260506165444 21 341 3.2 8.0 0.00 0.00 0.00 61 1013.4
20260506164942 20 344 3.2 8.0 0.00 0.00 0.00 62 1013.4
20260506164442 20 344 3.2 6.4 0.00 0.00 0.00 64 1013.4
20260506163438 20 280 3.2 8.0 0.00 0.00 0.00 64 1013.3
20260506162941 20 285 3.2 11.3 0.00 0.00 0.00 65 1013.3
20260506162440 19 289 3.2 11.3 0.00 0.00 0.00 65 1013.4
20260506161938 20 297 3.2 8.0 0.00 0.00 0.00 65 1013.4
20260506161441 19 355 3.2 8.0 0.00 0.00 0.00 66 1013.4
20260506160435 18 355 3.2 8.0 0.00 0.00 0.00 68 1013.4
20260506155935 18 355 3.2 6.4 0.00 0.00 0.00 71 1013.3
20260506154931 17 236 3.2 8.0 0.00 0.00 0.00 75 1013.5
20260506154429 17 311 3.2 11.3 0.00 0.00 0.00 75 1013.5
20260506153928 17 272 3.2 11.3 0.00 0.00 0.00 76 1013.7
20260506152925 16 343 3.2 6.4 0.00 0.00 0.00 77 1013.7
20260506151927 16 320 3.2 8.0 0.00 0.00 0.00 80 1013.8
20260506151422 15 320 3.2 8.0 0.00 0.00 0.00 81 1013.8
20260506150921 15 317 1.6 6.4 0.00 0.00 0.00 84 1013.8
20260506150418 15 317 3.2 6.4 0.00 0.00 0.00 87 1013.8
20260506145914 14 317 3.2 6.4 0.00 0.00 0.00 90 1013.7
20260506145416 13 317 3.2 6.4 0.00 0.00 0.00 92 1013.7
20260506144909 13 269 1.6 4.8 0.00 0.00 0.00 94 1013.7
20260506144412 13 269 0.0 4.8 0.00 0.00 0.00 95 1013.7
20260506143914 12 269 0.0 4.8 0.00 0.00 0.00 95 1013.3
20260506143408 12 268 1.6 3.2 0.00 0.00 0.00 95 1013.3
20260506142404 12 268 0.0 1.6 0.00 0.00 0.00 97 1013.2
20260506141858 11 268 0.0 1.6 0.00 0.00 0.00 97 1013.2
20260506141358 11 268 0.0 1.6 0.00 0.00 0.00 97 1013.1
20260506140856 10 268 0.0 3.2 0.00 0.00 0.00 96 1013.1
20260506140355 10 268 0.0 4.8 0.00 0.00 0.00 96 1013.1
20260506135852 10 268 0.0 4.8 0.00 0.00 0.00 96 1013.0
20260506134854 9 268 0.0 3.2 0.00 0.00 0.00 96 1013.0
20260506134351 8 268 0.0 0.0 0.00 0.00 0.00 95 1013.0
20260506133352 8 268 0.0 1.6 0.00 0.00 0.00 95 1013.0
20260506132848 8 268 0.0 1.6 0.00 0.00 0.00 95 1012.8
20260506131852 8 268 0.0 3.2 0.00 0.00 0.00 95 1012.8
20260506131342 8 268 0.0 3.2 0.00 0.00 0.00 95 1012.7
20260506130838 8 268 0.0 3.2 0.00 0.00 0.00 95 1012.7
20260506130335 8 268 0.0 3.2 0.00 0.00 0.00 95 1012.7
20260506125834 8 268 0.0 3.2 0.00 0.00 0.00 95 1012.6
20260506125336 8 268 0.0 0.0 0.00 0.00 0.00 95 1012.6
20260506124832 8 268 0.0 0.0 0.00 0.00 0.00 94 1012.6
20260506124328 8 268 0.0 0.0 0.00 0.00 0.00 94 1012.6
20260506123831 8 268 0.0 0.0 0.00 0.00 0.00 94 1012.6
20260506123328 8 268 0.0 0.0 0.00 0.00 0.00 95 1012.6
20260506121815 8 268 0.0 0.0 0.00 0.00 0.00 94 1012.5
20260506121314 8 268 0.0 0.0 0.00 0.00 0.00 94 1012.5
20260506120819 8 268 0.0 0.0 0.00 0.00 0.00 95 1012.5
20260506120314 8 268 0.0 0.0 0.00 0.00 0.00 94 1012.5
20260506115807 8 268 0.0 0.0 0.00 0.00 0.00 94 1012.6
20260506115307 8 268 0.0 0.0 0.00 0.00 0.00 94 1012.6
20260506114800 8 268 0.0 0.0 0.00 0.00 0.00 94 1012.6
20260506114257 8 268 0.0 0.0 0.00 0.00 0.00 94 1012.6
20260506113756 8 268 0.0 0.0 0.00 0.00 0.00 94 1012.6
20260506112749 8 268 0.0 0.0 0.00 0.00 0.00 94 1012.6
20260506111746 8 268 0.0 0.0 0.00 0.00 0.00 94 1012.6
20260506111242 8 268 0.0 0.0 0.00 0.00 0.00 94 1012.6
20260506110737 8 268 0.0 3.2 0.00 0.00 0.00 94 1012.6
20260506110236 8 268 0.0 3.2 0.00 0.00 0.00 94 1012.6
20260506105732 8 268 0.0 0.0 0.00 0.00 0.00 93 1012.6
20260506105229 8 268 0.0 0.0 0.00 0.00 0.00 94 1012.6
20260506104723 8 268 0.0 0.0 0.00 0.00 0.00 94 1012.6
20260506104227 8 268 0.0 0.0 0.00 0.00 0.00 94 1012.6
20260506103722 8 268 0.0 0.0 0.00 0.00 0.00 93 1012.6
20260506102718 9 268 0.0 0.0 0.00 0.00 0.00 93 1012.6
20260506101717 9 268 0.0 0.0 0.00 0.00 0.00 94 1012.6
20260506101213 9 268 0.0 0.0 0.00 0.00 0.00 93 1012.5
20260506100710 9 268 0.0 0.0 0.00 0.00 0.00 93 1012.5
20260506100211 9 268 0.0 0.0 0.00 0.00 0.00 93 1012.5
20260506095708 9 268 0.0 0.0 0.00 0.00 0.00 93 1012.5
20260506095207 9 268 0.0 0.0 0.00 0.00 0.00 93 1012.5
20260506094701 9 268 0.0 0.0 0.00 0.00 0.00 93 1012.5
20260506094202 9 268 0.0 0.0 0.00 0.00 0.00 93 1012.5
20260506093656 10 268 0.0 0.0 0.00 0.00 0.00 93 1012.5
20260506093156 10 268 0.0 1.6 0.00 0.00 0.00 93 1012.5
20260506092657 10 268 0.0 1.6 0.00 0.00 0.00 93 1012.5
20260506092157 10 268 0.0 0.0 0.00 0.00 0.00 93 1012.5
20260506091653 10 268 0.0 1.6 0.00 0.00 0.00 93 1012.6
20260506091147 10 268 0.0 3.2 0.00 0.00 0.00 92 1012.8
20260506090644 10 268 0.0 3.2 0.00 0.00 0.00 93 1012.8
20260506090138 10 268 0.0 0.0 0.00 0.00 0.00 92 1012.8
20260506085637 10 268 0.0 0.0 0.00 0.00 0.00 93 1012.9
20260506085131 10 268 0.0 0.0 0.00 0.00 0.00 93 1012.9
20260506084632 10 268 0.0 0.0 0.00 0.00 0.00 92 1012.9
20260506084132 10 268 0.0 0.0 0.00 0.00 0.00 92 1013.0
20260506082619 10 268 0.0 0.0 0.00 0.00 0.00 92 1013.1
20260506081609 10 268 0.0 1.6 0.00 0.00 0.00 91 1013.1
20260506081110 10 268 0.0 1.6 0.00 0.00 0.00 92 1013.0
20260506080606 10 268 0.0 3.2 0.00 0.00 0.00 91 1013.0
20260506073045 11 268 0.0 4.8 0.00 0.00 0.00 91 1012.9
20260506072543 11 268 0.0 4.8 0.00 0.00 0.00 91 1012.7
20260506071541 11 268 0.0 3.2 0.00 0.00 0.00 90 1012.7
20260506071038 11 268 0.0 3.2 0.00 0.00 0.00 90 1012.7
20260506070539 11 268 0.0 3.2 0.00 0.00 0.00 90 1012.7
20260506062016 12 268 0.0 3.2 0.00 0.00 0.00 89 1012.5
20260506061517 12 268 0.0 3.2 0.00 0.00 0.00 88 1012.5
20260506061017 12 268 1.6 4.8 0.00 0.00 0.00 89 1012.5
20260506050956 12 297 1.6 6.4 0.00 0.00 0.00 88 1012.1
20260506050456 12 297 1.6 4.8 0.00 0.00 0.00 87 1012.1
20260506044950 12 297 1.6 4.8 0.00 0.00 0.00 87 1012.1
20260506044447 12 297 1.6 4.8 0.00 0.00 0.00 87 1012.1
20260506043942 12 297 1.6 6.4 0.00 0.00 0.00 87 1012.0
20260506043443 13 297 1.6 8.0 0.00 0.00 0.00 87 1012.0
20260506042438 13 297 3.2 8.0 0.00 0.00 0.00 87 1011.8
20260506041436 13 302 3.2 11.3 0.00 0.00 0.00 87 1011.8
20260506040934 13 286 1.6 6.4 0.00 0.00 0.00 87 1011.6
20260506040431 13 286 3.2 11.3 0.00 0.00 0.00 87 1011.6
20260506035426 13 314 4.8 12.9 0.00 0.00 0.00 87 1011.2
20260506034928 13 291 6.4 20.9 0.00 0.00 0.00 87 1011.2
20260506034433 13 281 6.4 20.9 0.00 0.00 0.00 87 1011.2
20260506033926 13 286 6.4 14.5 0.00 0.00 0.00 87 1011.0
20260506033425 13 287 4.8 16.1 0.00 0.00 0.00 86 1011.0
20260506032926 13 289 6.4 16.1 0.00 0.00 0.00 86 1011.0
20260506032426 13 295 8.0 17.7 0.00 0.00 0.00 85 1010.7
20260506031924 13 275 8.0 17.7 0.00 0.00 0.00 85 1010.7
20260506031422 13 286 8.0 24.1 0.00 0.00 0.00 85 1010.7
20260506030923 13 292 8.0 24.1 0.00 0.00 0.00 85 1010.7
20260506030422 13 290 6.4 16.1 0.00 0.00 0.00 84 1010.7
20260506025919 13 313 6.4 12.9 0.00 0.00 0.00 84 1010.7
20260506025420 13 293 4.8 12.9 0.00 0.00 0.00 84 1010.4
20260506024924 13 284 4.8 9.7 0.00 0.00 0.00 83 1010.4
20260506024423 13 302 4.8 9.7 0.00 0.00 0.00 83 1010.4
20260506023916 13 286 6.4 14.5 0.00 0.00 0.00 83 1010.3
20260506023412 13 263 6.4 16.1 0.00 0.00 0.00 82 1010.3
20260506022910 13 288 6.4 19.3 0.00 0.00 0.00 82 1010.2
20260506022405 14 273 6.4 19.3 0.00 0.00 0.00 82 1010.2
20260506021905 14 279 4.8 16.1 0.00 0.00 0.00 81 1010.2
20260506021405 14 294 6.4 16.1 0.00 0.00 0.00 81 1010.1
20260506020901 14 337 8.0 14.5 0.00 0.00 0.00 81 1010.1
20260506020358 14 280 8.0 14.5 0.00 0.00 0.00 80 1010.1
20260506015859 14 335 8.0 19.3 0.00 0.00 0.00 79 1010.1
20260506015358 14 316 8.0 19.3 0.00 0.00 0.00 78 1010.1
20260506014903 15 304 8.0 17.7 0.00 0.00 0.00 77 1010.1
20260506014404 15 292 6.4 16.1 0.00 0.00 0.00 76 1010.1
20260506013859 15 305 6.4 19.3 0.00 0.00 0.00 76 1010.1
20260506013357 15 259 6.4 19.3 0.00 0.00 0.00 75 1010.1
20260506012355 15 269 9.7 25.7 0.00 0.00 0.00 74 1010.1
20260506011856 15 298 8.0 20.9 0.00 0.00 0.00 73 1010.1
20260506011356 16 289 6.4 20.9 0.00 0.00 0.00 71 1010.1
20260506010855 16 311 6.4 14.5 0.00 0.00 0.00 69 1010.1
20260506005852 16 318 6.4 17.7 0.00 0.00 0.00 70 1010.1
20260506004342 16 324 8.0 16.1 0.00 0.00 0.00 70 1010.1
20260506003841 16 274 8.0 16.1 0.00 0.00 0.00 70 1010.1
20260506003339 16 240 8.0 19.3 0.00 0.00 0.00 70 1010.1
20260506002840 17 302 9.7 22.5 0.00 0.00 0.00 69 1009.9
20260506002336 17 314 8.0 22.5 0.00 0.00 0.00 67 1009.9
20260506001835 17 273 6.4 17.7 0.00 0.00 0.00 67 1009.9
20260506001334 17 301 8.0 17.7 0.00 0.00 0.00 67 1009.9
20260506000833 17 299 8.0 16.1 0.00 0.00 0.00 66 1009.9
20260506000331 17 304 8.0 19.3 0.00 0.00 0.00 67 1009.9
20260505235330 17 309 8.0 20.9 0.00 0.00 0.00 63 1010.0
20260505234324 18 300 8.0 19.3 0.00 0.00 0.00 66 1010.2
20260505233324 18 273 8.0 17.7 0.00 0.00 0.00 66 1010.2
20260505232320 18 322 8.0 17.7 0.00 0.00 0.00 65 1010.0
20260505231819 18 290 8.0 17.7 0.00 0.00 0.00 67 1010.0
20260505230819 18 325 9.7 20.9 0.00 0.00 0.00 66 1010.2
20260505230324 18 313 9.7 17.7 0.00 0.00 0.00 66 1010.2
20260505225819 18 324 8.0 19.3 0.00 0.00 0.00 66 1010.1
20260505225316 18 346 9.7 22.5 0.00 0.00 0.00 66 1010.1
20260505224816 18 302 9.7 22.5 0.00 0.00 0.00 65 1010.1
20260505224314 18 311 8.0 17.7 0.00 0.00 0.00 65 1010.2
20260505223815 18 336 9.7 17.7 0.00 0.00 0.00 65 1010.2
20260505223310 18 323 9.7 20.9 0.00 0.00 0.00 64 1010.2
20260505222308 18 313 8.0 16.1 0.00 0.00 0.00 64 1010.3
20260505221809 18 313 8.0 19.3 0.00 0.00 0.00 63 1010.3
20260505221311 19 277 9.7 20.9 0.00 0.00 0.00 63 1010.3
20260505220812 19 299 9.7 22.5 0.00 0.00 0.00 62 1010.3
20260505220307 19 329 8.0 22.5 0.00 0.00 0.00 62 1010.3
20260505215804 19 332 8.0 17.7 0.00 0.00 0.00 62 1010.6
20260505215305 18 11 9.7 17.7 0.00 0.00 0.00 64 1010.6
20260505214801 18 323 9.7 17.7 0.00 0.00 0.00 64 1010.6
20260505214255 18 306 9.7 25.7 0.00 0.00 0.00 66 1010.8
20260505213756 18 332 9.7 25.7 0.00 0.00 0.00 64 1010.7
20260505213258 18 277 11.3 22.5 0.00 0.00 0.00 66 1010.8
20260505212751 18 291 9.7 22.5 0.00 0.00 0.00 64 1010.8
20260505212253 18 309 8.0 17.7 0.00 0.00 0.00 63 1010.8